ZHANGZHENG-1 (CSES) (43194 NORAD) Tracking and Keplerian Element Data

This shows tracking and keplerian element data for the satellite.

Feedback or suggestion? Click here.




ElementValue
Catalog43194
NameZHANGZHENG-1 (CSES)
Epoch Orbit20139
Epoch Day262.21150558
Epoch Year2021
RAAN28.968
Inclination97.4901
Eccentricity0.0011315
Argument of Perigee308.5526
Mean Anonmoly169.4982
Mean Motion15.21095161
Decay Rate1.769E-05
L11 43194U 18015C 21262.21150558 .00001769 00000-0 82644-4 0 9997
L22 43194 97.4901 28.9680 0011315 308.5526 169.4982 15.21095161201391

Live tracking and technical data element details for ZHANGZHENG-1 (CSES) (NORAD 43194). ZHANGZHENG-1 (CSES) can be tracked NOW for your location showing map with azimuth and elevation plus other details from your city location.

Track the satellite on the map from your city or location and see movement details for azimuth, elevation, latitude, longitude, range, height, and movement on the map or in text.







IsCatalogInMostPopularTable: catalog: 43194, numindb: 600
Update: records affected: 1



GetName: 43194 ZHANGZHENG-1 (CSES)

Hit Count: updated at: Sun, 26 Sep 2021 00:51:22 GMT